Regional Weather Roundup
Issued by NWS State College, PA

Home | Current Version | Previous Version | Graphics & Text | Print | Product List | Glossary Off
Versions: 1 2 3 4 5 6 7 8 9 10 11 12 13 14 15 16 17 18 19 20 21 22 23 24 25 26 27 28 29 30 31 32 33 34 35 36 37 38 39 40 41 42 43 44 45 46 47 48 49 50

000
ASUS41 KCTP 270803
RWRCTP

REGIONAL WEATHER ROUNDUP
NATIONAL WEATHER SERVICE STATE COLLEGE PA
400 AM EDT WED MAY 27 2015

Note: "fair" indicates few or no clouds below 12,000 feet with no
significant weather and/or obstructions to visibility.

* = STATION THAT DOES NOT REPORT PRECIPITATION /E.G. RAIN...SNOW...ETC/
    THUNDER OR FOG.

PAZ002>004-007>009-013>016-020>023-029>032-270900-
WESTERN PENNSYLVANIA

CITY           SKY/WX    TMP DP  RH WIND       PRES   REMARKS
ERIE           CLOUDY    71  63  75 S16G25    29.98S
MEADVILLE      CLOUDY    67  62  84 SW10      30.04R
FRANKLIN*      CLOUDY    64  61  88 SW9G16    30.08R
NEW CASTLE     PTSUNNY   66  66 100 CALM      30.06F
BEAVER COUNTY  NOT AVBL
BUTLER*        CLOUDY    64  63  94 SW7       30.10R
PITTSBURGH INT LGT RAIN  67  64  90 SW6       30.06F
PITTSBURGH     LGT RAIN  66  61  84 S9        30.07F
INDIANA*       CLOUDY    70  64  83 W7        30.14R
LATROBE        CLOUDY    72  64  78 SW12      30.12S
WASHINGTON CO* CLOUDY    64  63  94 S5        30.11F
$$

PAZ004>006-010>012-017>019-024>028-033>037-041-042-045-046-049>053-270900-
CENTRAL PENNSYLVANIA

CITY           SKY/WX    TMP DP  RH WIND       PRES   REMARKS
BRADFORD       LGT RAIN  66  61  84 S10G18    30.09S
DUBOIS         MOCLDY    68  62  81 SW10      30.09F
CLEARFIELD     MOCLDY    64  61  90 CALM      30.10S
JOHNSTOWN      MOCLDY    67  60  78 SW7       30.13F
ALTOONA        MOCLDY    67  62  84 S3        30.12F
STATE COLLEGE  MOCLDY    69  64  83 SW5       30.11R
WILLIAMSPORT   PTCLDY    69  65  86 CALM      30.07S
SELINSGROVE    PTCLDY    72  66  81 CALM      30.10F
FT INDIANTOWN  MOCLDY    67  65  93 CALM      30.12F
CAPITAL CITY   PTCLDY    73  65  75 CALM      30.11S
HARRISBURG     PTCLDY    72  65  78 SE6       30.11S
YORK           CLEAR     71  65  81 VRB3      30.12F
$$

PAZ038>040-043-044-047-048-054-055-060>062-067>071-270900-
EASTERN PENNSYLVANIA

CITY           SKY/WX    TMP DP  RH WIND       PRES   REMARKS
SCRANTON       PTCLDY    71  64  78 S5        30.11F
MOUNT POCONO   MOCLDY    67  63  87 SW7       30.17S
ALLENTOWN      PTCLDY    72  63  73 S7        30.13F
QUAKERTOWN*    MOSUNNY   68  64  88 S3        30.15F
READING        PTCLDY    72  65  78 S10       30.12F
LANCASTER      MOCLDY    71  66  84 S8        30.13F
COATESVILLE    PTSUNNY   68  66  94 S3        30.17S
POTTSTOWN      PTCLDY    70  66  87 S6        30.16S
BLUE BELL      PTCLDY    70  64  83 S5        30.14F
DOYLESTOWN     CLEAR     68  64  87 S6        30.14F
WILLOW GROVE   NOT AVBL
NORTH PHILA    PTCLDY    71  63  75 S6        30.17S
PHILADELPHIA   MOCLDY    71  65  81 S8        30.16F
$$


USA.gov is the U.S. government's official web portal to all federal, state and local government web resources and services.